Terminal Aerodrome Forecast
Issued by NWS Cleveland, OH

Home | Current Version | Previous Version | Text Only | Print | Product List | Glossary Off
Versions: 1 2 3 4 5 6 7 8 9 10 11 12 13 14 15 16 17 18

038
FTUS41 KCLE 251601 AAA
TAFCAK
TAF AMD
KCAK 251601Z 2516/2612 34006KT P6SM SCT025 OVC035
     FM252200 02006KT P6SM SCT040
     FM260200 05004KT P6SM SKC=

USA.gov is the U.S. government's official web portal to all federal, state and local government web resources and services.